Regional Weather Roundup
Issued by NWS State College, PA

Home | Current Version | Previous Version | Graphics & Text | Print | Product List | Glossary Off
Versions: 1 2 3 4 5 6 7 8 9 10 11 12 13 14 15 16 17 18 19 20 21 22 23 24 25 26 27 28 29 30 31 32 33 34 35 36 37 38 39 40 41 42 43 44 45 46 47 48 49 50

000
ASUS41 KCTP 240810
RWRCTP

REGIONAL WEATHER ROUNDUP
NATIONAL WEATHER SERVICE STATE COLLEGE PA
400 AM EDT MON JUL 24 2017

Note: "fair" indicates few or no clouds below 12,000 feet with no
significant weather and/or obstructions to visibility.

* = STATION THAT DOES NOT REPORT PRECIPITATION /E.G. RAIN...SNOW...ETC/
    THUNDER OR FOG.

PAZ002>004-007>009-013>016-020>023-029>032-240900-
WESTERN PENNSYLVANIA

CITY           SKY/WX    TMP DP  RH WIND       PRES   REMARKS
ERIE           CLOUDY    70  67  90 SW5       29.74S
MEADVILLE      NOT AVBL
FRANKLIN*      CLEAR     64  61  88 SW8       29.79S
NEW CASTLE     CLOUDY    69  69 100 W8        29.80R
BEAVER COUNTY  NOT AVBL
BUTLER*        CLOUDY    68  64  88 SW8       29.79S
PITTSBURGH INT CLOUDY    68  67  96 W5        29.80S
PITTSBURGH     PTCLDY    67  64  90 SW7       29.80S
INDIANA*       CLOUDY    68  68 100 W9        29.82F
LATROBE        CLOUDY    68  68 100 SW8       29.81F
WASHINGTON CO* CLEAR     64  63  94 SW5       29.82S
$$

PAZ004>006-010>012-017>019-024>028-033>037-041-042-045-046-049>053-240900-
CENTRAL PENNSYLVANIA

CITY           SKY/WX    TMP DP  RH WIND       PRES   REMARKS
BRADFORD       CLOUDY    67  67 100 W5        29.80S
DUBOIS         MOCLDY    63  61  93 CALM      29.80R FOG
CLEARFIELD     CLOUDY    66  66 100 E3        29.79F
JOHNSTOWN      CLOUDY    66  65  96 W7        29.83R
ALTOONA        MOCLDY    68  68 100 W5        29.79S
STATE COLLEGE  CLOUDY    66  65  98 NE5       29.77F
WILLIAMSPORT   HVY RAIN  67  66  97 CALM      29.76F FOG
SELINSGROVE    CLOUDY    68  67  96 N3        29.75F
FT INDIANTOWN  CLOUDY    70  70 100 NE3       29.73F
CAPITAL CITY   MOCLDY    72  69  90 SW3       29.73F
HARRISBURG     CLOUDY    72  71  97 E5        29.72F
YORK           PTCLDY    70  70 100 CALM      29.74F
$$

PAZ038>040-043-044-047-048-054-055-060>062-067>071-240900-
EASTERN PENNSYLVANIA

CITY           SKY/WX    TMP DP  RH WIND       PRES   REMARKS
SCRANTON       HVY RAIN  67  66  97 VRB6      29.80R FOG
MOUNT POCONO   RAIN      63  63 100 E12G21    29.82S FOG
ALLENTOWN      RAIN      70  66  87 E12       29.75F FOG
QUAKERTOWN*    CLOUDY    68  68 100 CALM      29.77F
READING        CLOUDY    70  70 100 SE5       29.73F
LANCASTER      CLOUDY    72  71  97 NE3       29.73F
COATESVILLE    CLOUDY    70  70 100 E7        29.77F FOG
POTTSTOWN      LGT RAIN  68  68 100 CALM      29.77S FOG
BLUE BELL      CLOUDY    68  68 100 CALM      29.77F
DOYLESTOWN     RAIN      69  68  96 CALM      29.76F
WILLOW GROVE   NOT AVBL
NORTH PHILA    HVY RAIN  73  70  90 E9        29.77S FOG
PHILADELPHIA   LGT RAIN  72  70  93 E6        29.76S
$$



USA.gov is the U.S. government's official web portal to all federal, state and local government web resources and services.